Wetterdaten: Freitag, 07.11.2014
Datum Zeit Temperatur Luftfeuchte Luftdruck Regen Wind Richtung Richtung Taupunkt Windchill Windben
07.11.2014 00:00 2,5 C 97 % 1014,2 hPa 0,0 l/m 0,0 km/h (0 Bft) SO 135 2,1 C 7,8 C 0,0 km/h (0 Bft)
07.11.2014 00:05 2,5 C 97 % 1014,2 hPa 0,0 l/m 0,0 km/h (0 Bft) SO 135 2,1 C 7,8 C 0,0 km/h (0 Bft)
07.11.2014 00:08 2,5 C 97 % 1014,2 hPa 0,0 l/m 0,0 km/h (0 Bft) SO 135 2,1 C 7,8 C 0,0 km/h (0 Bft)
07.11.2014 00:10 2,5 C 97 % 1014,2 hPa 0,0 l/m 0,0 km/h (0 Bft) SO 135 2,1 C 7,8 C 0,0 km/h (0 Bft)
07.11.2014 00:15 2,4 C 97 % 1014,2 hPa 0,0 l/m 0,0 km/h (0 Bft) SO 135 2,0 C 7,8 C 0,0 km/h (0 Bft)
07.11.2014 00:20 2,5 C 97 % 1014,2 hPa 0,0 l/m 0,0 km/h (0 Bft) SO 135 2,1 C 7,8 C 0,0 km/h (0 Bft)
07.11.2014 00:25 2,5 C 97 % 1014,2 hPa 0,0 l/m 0,0 km/h (0 Bft) SO 135 2,1 C 7,8 C 0,0 km/h (0 Bft)
07.11.2014 00:30 2,4 C 97 % 1014,2 hPa 0,0 l/m 0,0 km/h (0 Bft) SO 135 2,0 C 7,8 C 0,0 km/h (0 Bft)
07.11.2014 00:35 2,4 C 97 % 1013,8 hPa 0,0 l/m 0,0 km/h (0 Bft) SO 135 2,0 C 7,8 C 0,0 km/h (0 Bft)
07.11.2014 00:40 2,4 C 97 % 1013,8 hPa 0,0 l/m 0,0 km/h (0 Bft) SO 135 2,0 C 7,8 C 0,0 km/h (0 Bft)
07.11.2014 00:45 2,4 C 97 % 1013,8 hPa 0,0 l/m 0,0 km/h (0 Bft) SO 135 2,0 C 7,8 C 0,0 km/h (0 Bft)
07.11.2014 00:50 2,3 C 97 % 1013,8 hPa 0,0 l/m 0,0 km/h (0 Bft) SO 135 1,9 C 7,8 C 0,0 km/h (0 Bft)
07.11.2014 00:55 2,2 C 97 % 1013,6 hPa 0,0 l/m 0,0 km/h (0 Bft) SO 135 1,8 C 7,8 C 0,0 km/h (0 Bft)
07.11.2014 01:00 1,9 C 98 % 1013,6 hPa 0,0 l/m 0,0 km/h (0 Bft) SO 135 1,6 C 7,8 C 0,0 km/h (0 Bft)
07.11.2014 01:05 1,7 C 98 % 1013,6 hPa 0,0 l/m 0,0 km/h (0 Bft) SO 135 1,4 C 7,8 C 0,0 km/h (0 Bft)
07.11.2014 01:10 1,6 C 98 % 1013,6 hPa 0,0 l/m 0,0 km/h (0 Bft) SO 135 1,3 C 7,8 C 0,0 km/h (0 Bft)
07.11.2014 01:15 1,6 C 98 % 1013,6 hPa 0,0 l/m 0,0 km/h (0 Bft) SO 135 1,3 C 7,8 C 0,0 km/h (0 Bft)
07.11.2014 01:20 1,6 C 98 % 1013,5 hPa 0,0 l/m 0,0 km/h (0 Bft) SO 135 1,3 C 7,8 C 0,0 km/h (0 Bft)
07.11.2014 01:25 1,6 C 98 % 1013,5 hPa 0,0 l/m 0,0 km/h (0 Bft) SO 135 1,3 C 7,8 C 0,0 km/h (0 Bft)
07.11.2014 01:30 1,7 C 98 % 1013,5 hPa 0,0 l/m 0,0 km/h (0 Bft) SO 135 1,4 C 7,8 C 0,0 km/h (0 Bft)
07.11.2014 01:35 1,8 C 98 % 1013,5 hPa 0,0 l/m 0,0 km/h (0 Bft) SO 135 1,5 C 7,8 C 0,0 km/h (0 Bft)
07.11.2014 01:40 1,7 C 98 % 1013,3 hPa 0,0 l/m 0,0 km/h (0 Bft) SO 135 1,4 C 7,8 C 0,0 km/h (0 Bft)
07.11.2014 01:45 1,8 C 98 % 1013,3 hPa 0,0 l/m 0,0 km/h (0 Bft) SO 135 1,5 C 7,8 C 0,0 km/h (0 Bft)
07.11.2014 01:50 1,8 C 98 % 1013,3 hPa 0,0 l/m 0,0 km/h (0 Bft) SO 135 1,5 C 7,8 C 0,0 km/h (0 Bft)
07.11.2014 01:55 1,8 C 98 % 1013,3 hPa 0,0 l/m 0,0 km/h (0 Bft) SO 135 1,5 C 7,8 C 0,0 km/h (0 Bft)
07.11.2014 02:00 1,8 C 98 % 1013,1 hPa 0,0 l/m 0,0 km/h (0 Bft) SO 135 1,5 C 7,8 C 0,0 km/h (0 Bft)
07.11.2014 02:05 1,9 C 98 % 1013,1 hPa 0,0 l/m 0,0 km/h (0 Bft) SO 135 1,6 C 7,8 C 0,0 km/h (0 Bft)
07.11.2014 02:10 1,9 C 98 % 1013,1 hPa 0,0 l/m 0,0 km/h (0 Bft) SO 135 1,6 C 7,8 C 0,0 km/h (0 Bft)
07.11.2014 02:15 1,9 C 98 % 1013,1 hPa 0,0 l/m 0,0 km/h (0 Bft) SO 135 1,6 C 7,8 C 0,0 km/h (0 Bft)
07.11.2014 02:20 2,0 C 97 % 1012,6 hPa 0,0 l/m 0,0 km/h (0 Bft) SO 135 1,6 C 7,8 C 0,0 km/h (0 Bft)
07.11.2014 02:25 2,0 C 97 % 1012,6 hPa 0,0 l/m 0,0 km/h (0 Bft) SO 135 1,6 C 7,8 C 0,0 km/h (0 Bft)
07.11.2014 02:30 2,1 C 97 % 1012,6 hPa 0,0 l/m 0,0 km/h (0 Bft) SO 135 1,7 C 7,8 C 0,0 km/h (0 Bft)
07.11.2014 02:35 2,1 C 97 % 1012,6 hPa 0,0 l/m 0,0 km/h (0 Bft) SO 135 1,7 C 7,8 C 0,0 km/h (0 Bft)
07.11.2014 02:40 2,1 C 97 % 1012,9 hPa 0,0 l/m 0,0 km/h (0 Bft) SO 135 1,7 C 7,8 C 0,0 km/h (0 Bft)
07.11.2014 02:45 2,1 C 97 % 1012,9 hPa 0,0 l/m 0,0 km/h (0 Bft) SO 135 1,7 C 7,8 C 0,0 km/h (0 Bft)
07.11.2014 02:50 2,2 C 97 % 1012,9 hPa 0,0 l/m 0,0 km/h (0 Bft) SO 135 1,8 C 7,8 C 0,0 km/h (0 Bft)
07.11.2014 02:55 2,2 C 97 % 1012,9 hPa 0,0 l/m 0,0 km/h (0 Bft) SO 135 1,8 C 7,8 C 0,0 km/h (0 Bft)
07.11.2014 03:00 2,2 C 97 % 1012,9 hPa 0,0 l/m 0,0 km/h (0 Bft) SO 135 1,8 C 7,8 C 0,0 km/h (0 Bft)
07.11.2014 03:05 2,2 C 97 % 1012,9 hPa 0,0 l/m 0,0 km/h (0 Bft) SO 135 1,8 C 7,8 C 0,0 km/h (0 Bft)
07.11.2014 03:08 2,2 C 97 % 1012,9 hPa 0,0 l/m 0,0 km/h (0 Bft) SO 135 1,8 C 7,8 C 0,0 km/h (0 Bft)
07.11.2014 03:15 2,3 C 97 % 1012,8 hPa 0,0 l/m 0,0 km/h (0 Bft) SO 135 1,9 C 7,8 C 0,0 km/h (0 Bft)
07.11.2014 03:20 2,3 C 97 % 1012,8 hPa 0,0 l/m 0,0 km/h (0 Bft) SO 135 1,9 C 7,8 C 0,0 km/h (0 Bft)
07.11.2014 03:25 2,3 C 97 % 1012,8 hPa 0,0 l/m 0,0 km/h (0 Bft) SO 135 1,9 C 7,8 C 0,0 km/h (0 Bft)
07.11.2014 03:30 2,3 C 97 % 1012,8 hPa 0,0 l/m 0,0 km/h (0 Bft) SO 135 1,9 C 7,8 C 0,0 km/h (0 Bft)
07.11.2014 03:35 2,3 C 97 % 1012,4 hPa 0,0 l/m 0,0 km/h (0 Bft) SO 135 1,9 C 7,8 C 0,0 km/h (0 Bft)
07.11.2014 03:40 2,3 C 97 % 1012,4 hPa 0,0 l/m 0,0 km/h (0 Bft) SO 135 1,9 C 7,8 C 0,0 km/h (0 Bft)
07.11.2014 03:45 2,3 C 97 % 1012,4 hPa 0,0 l/m 0,0 km/h (0 Bft) SO 135 1,9 C 7,8 C 0,0 km/h (0 Bft)
07.11.2014 03:50 2,3 C 97 % 1012,4 hPa 0,0 l/m 0,0 km/h (0 Bft) SO 135 1,9 C 7,8 C 0,0 km/h (0 Bft)
07.11.2014 03:55 2,3 C 97 % 1012,3 hPa 0,0 l/m 0,0 km/h (0 Bft) SO 135 1,9 C 7,8 C 0,0 km/h (0 Bft)
07.11.2014 04:00 2,3 C 97 % 1012,3 hPa 0,0 l/m 0,0 km/h (0 Bft) SO 135 1,9 C 7,8 C 0,0 km/h (0 Bft)
07.11.2014 04:05 2,3 C 97 % 1012,3 hPa 0,0 l/m 0,0 km/h (0 Bft) SO 135 1,9 C 7,8 C 0,0 km/h (0 Bft)
07.11.2014 04:10 2,2 C 97 % 1012,3 hPa 0,0 l/m 0,0 km/h (0 Bft) SO 135 1,8 C 7,8 C 0,0 km/h (0 Bft)
07.11.2014 04:15 2,2 C 97 % 1012,3 hPa 0,0 l/m 0,0 km/h (0 Bft) SO 135 1,8 C 7,8 C 0,0 km/h (0 Bft)
07.11.2014 04:20 2,2 C 97 % 1011,9 hPa 0,0 l/m 0,0 km/h (0 Bft) SO 135 1,8 C 7,8 C 0,0 km/h (0 Bft)
07.11.2014 04:25 2,2 C 97 % 1011,9 hPa 0,0 l/m 0,0 km/h (0 Bft) SO 135 1,8 C 7,8 C 0,0 km/h (0 Bft)
07.11.2014 04:30 2,2 C 97 % 1011,9 hPa 0,0 l/m 0,0 km/h (0 Bft) SO 135 1,8 C 7,8 C 0,0 km/h (0 Bft)
07.11.2014 04:35 2,1 C 97 % 1011,9 hPa 0,0 l/m 0,0 km/h (0 Bft) SO 135 1,7 C 7,8 C 0,0 km/h (0 Bft)
07.11.2014 04:40 2,1 C 97 % 1012,2 hPa 0,0 l/m 0,0 km/h (0 Bft) SO 135 1,7 C 7,8 C 0,0 km/h (0 Bft)
07.11.2014 04:45 2,1 C 97 % 1012,2 hPa 0,0 l/m 0,0 km/h (0 Bft) SO 135 1,7 C 7,8 C 0,0 km/h (0 Bft)
07.11.2014 04:50 2,1 C 97 % 1012,2 hPa 0,0 l/m 0,0 km/h (0 Bft) SO 135 1,7 C 7,8 C 0,0 km/h (0 Bft)
07.11.2014 04:55 2,1 C 97 % 1012,2 hPa 0,0 l/m 0,0 km/h (0 Bft) SO 135 1,7 C 7,8 C 0,0 km/h (0 Bft)
07.11.2014 05:00 2,1 C 97 % 1011,8 hPa 0,0 l/m 0,0 km/h (0 Bft) SO 135 1,7 C 7,8 C 0,0 km/h (0 Bft)
07.11.2014 05:05 2,0 C 97 % 1011,8 hPa 0,0 l/m 0,0 km/h (0 Bft) SO 135 1,6 C 7,8 C 0,0 km/h (0 Bft)
07.11.2014 05:10 2,0 C 97 % 1011,8 hPa 0,0 l/m 0,0 km/h (0 Bft) SO 135 1,6 C 7,8 C 0,0 km/h (0 Bft)
07.11.2014 05:15 2,0 C 97 % 1011,8 hPa 0,0 l/m 0,0 km/h (0 Bft) SO 135 1,6 C 7,8 C 0,0 km/h (0 Bft)
07.11.2014 05:20 2,0 C 97 % 1011,8 hPa 0,0 l/m 0,0 km/h (0 Bft) SO 135 1,6 C 7,8 C 0,0 km/h (0 Bft)
07.11.2014 05:25 2,0 C 97 % 1011,8 hPa 0,0 l/m 0,0 km/h (0 Bft) SO 135 1,6 C 7,8 C 0,0 km/h (0 Bft)
07.11.2014 05:30 2,0 C 97 % 1011,8 hPa 0,0 l/m 0,0 km/h (0 Bft) SO 135 1,6 C 7,8 C 0,0 km/h (0 Bft)
07.11.2014 05:35 2,1 C 97 % 1011,8 hPa 0,0 l/m 0,0 km/h (0 Bft) SO 135 1,7 C 7,8 C 0,0 km/h (0 Bft)
07.11.2014 05:40 2,1 C 97 % 1011,6 hPa 0,0 l/m 0,0 km/h (0 Bft) SO 135 1,7 C 7,8 C 0,0 km/h (0 Bft)
07.11.2014 05:45 2,1 C 97 % 1011,6 hPa 0,0 l/m 0,0 km/h (0 Bft) SO 135 1,7 C 7,8 C 0,0 km/h (0 Bft)
07.11.2014 05:50 2,1 C 97 % 1011,6 hPa 0,0 l/m 0,0 km/h (0 Bft) SO 135 1,7 C 7,8 C 0,0 km/h (0 Bft)
07.11.2014 05:55 2,1 C 97 % 1011,6 hPa 0,0 l/m 0,0 km/h (0 Bft) SO 135 1,7 C 7,8 C 0,0 km/h (0 Bft)
07.11.2014 06:00 2,1 C 97 % 1011,4 hPa 0,0 l/m 0,0 km/h (0 Bft) SO 135 1,7 C 7,8 C 0,0 km/h (0 Bft)
07.11.2014 06:05 2,1 C 97 % 1011,4 hPa 0,0 l/m 0,0 km/h (0 Bft) SO 135 1,7 C 7,8 C 0,0 km/h (0 Bft)
07.11.2014 06:10 2,2 C 97 % 1011,4 hPa 0,0 l/m 0,0 km/h (0 Bft) SO 135 1,8 C 7,8 C 0,0 km/h (0 Bft)
07.11.2014 06:15 2,1 C 97 % 1011,3 hPa 0,0 l/m 0,0 km/h (0 Bft) SO 135 1,7 C 7,8 C 0,0 km/h (0 Bft)
07.11.2014 06:20 2,1 C 97 % 1011,3 hPa 0,0 l/m 0,0 km/h (0 Bft) SO 135 1,7 C 7,8 C 0,0 km/h (0 Bft)
07.11.2014 06:25 2,1 C 97 % 1011,3 hPa 0,0 l/m 0,0 km/h (0 Bft) SO 135 1,7 C 7,8 C 0,0 km/h (0 Bft)
07.11.2014 06:30 2,0 C 97 % 1011,3 hPa 0,0 l/m 0,0 km/h (0 Bft) SO 135 1,6 C 7,8 C 0,0 km/h (0 Bft)
07.11.2014 06:35 2,0 C 97 % 1011,4 hPa 0,0 l/m 0,0 km/h (0 Bft) SO 135 1,6 C 7,8 C 0,0 km/h (0 Bft)
07.11.2014 06:40 2,0 C 97 % 1011,4 hPa 0,0 l/m 0,0 km/h (0 Bft) SO 135 1,6 C 7,8 C 0,0 km/h (0 Bft)
07.11.2014 06:45 1,9 C 98 % 1011,4 hPa 0,0 l/m 0,0 km/h (0 Bft) SO 135 1,6 C 7,8 C 0,0 km/h (0 Bft)
07.11.2014 06:50 1,9 C 98 % 1011,4 hPa 0,0 l/m 0,0 km/h (0 Bft) SO 135 1,6 C 7,8 C 0,0 km/h (0 Bft)
07.11.2014 06:55 2,0 C 97 % 1011,6 hPa 0,0 l/m 0,0 km/h (0 Bft) SO 135 1,6 C 7,8 C 0,0 km/h (0 Bft)
07.11.2014 07:00 1,9 C 98 % 1011,6 hPa 0,0 l/m 0,0 km/h (0 Bft) SO 135 1,6 C 7,8 C 0,0 km/h (0 Bft)
07.11.2014 07:05 1,9 C 98 % 1011,6 hPa 0,0 l/m 0,0 km/h (0 Bft) SO 135 1,6 C 7,8 C 0,0 km/h (0 Bft)
07.11.2014 07:10 1,8 C 98 % 1011,6 hPa 0,0 l/m 0,0 km/h (0 Bft) SO 135 1,5 C 7,8 C 0,0 km/h (0 Bft)
07.11.2014 07:15 1,8 C 98 % 1011,8 hPa 0,0 l/m 0,0 km/h (0 Bft) SO 135 1,5 C 7,8 C 0,0 km/h (0 Bft)
07.11.2014 07:20 1,8 C 98 % 1011,8 hPa 0,0 l/m 0,0 km/h (0 Bft) SO 135 1,5 C 7,8 C 0,0 km/h (0 Bft)
07.11.2014 07:25 1,8 C 98 % 1011,8 hPa 0,0 l/m 0,0 km/h (0 Bft) SO 135 1,5 C 7,8 C 0,0 km/h (0 Bft)
07.11.2014 07:30 1,8 C 98 % 1011,8 hPa 0,0 l/m 0,0 km/h (0 Bft) SO 135 1,5 C 7,8 C 0,0 km/h (0 Bft)
07.11.2014 07:35 1,6 C 98 % 1011,8 hPa 0,0 l/m 0,0 km/h (0 Bft) SO 135 1,3 C 7,8 C 0,0 km/h (0 Bft)
07.11.2014 07:40 1,6 C 98 % 1011,9 hPa 0,0 l/m 0,0 km/h (0 Bft) SO 135 1,3 C 7,8 C 0,0 km/h (0 Bft)
07.11.2014 07:45 1,6 C 98 % 1011,9 hPa 0,0 l/m 0,0 km/h (0 Bft) SO 135 1,3 C 7,8 C 0,0 km/h (0 Bft)
07.11.2014 07:50 1,6 C 98 % 1011,9 hPa 0,0 l/m 0,0 km/h (0 Bft) SO 135 1,3 C 7,8 C 0,0 km/h (0 Bft)
07.11.2014 07:55 1,6 C 98 % 1011,9 hPa 0,0 l/m 0,0 km/h (0 Bft) SO 135 1,3 C 7,8 C 0,0 km/h (0 Bft)
07.11.2014 08:00 1,7 C 98 % 1012,0 hPa 0,0 l/m 0,0 km/h (0 Bft) SO 135 1,4 C 7,8 C 0,0 km/h (0 Bft)
07.11.2014 08:05 1,7 C 98 % 1012,0 hPa 0,0 l/m 0,0 km/h (0 Bft) SO 135 1,4 C 7,8 C 0,0 km/h (0 Bft)
07.11.2014 08:10 1,8 C 98 % 1012,0 hPa 0,0 l/m 0,0 km/h (0 Bft) SO 135 1,5 C 7,8 C 0,0 km/h (0 Bft)
07.11.2014 08:15 1,9 C 98 % 1012,0 hPa 0,0 l/m 0,0 km/h (0 Bft) SO 135 1,6 C 7,8 C 0,0 km/h (0 Bft)
07.11.2014 08:20 1,9 C 98 % 1012,0 hPa 0,0 l/m 0,0 km/h (0 Bft) SO 135 1,6 C 7,8 C 0,0 km/h (0 Bft)
07.11.2014 08:25 2,0 C 97 % 1012,0 hPa 0,0 l/m 0,0 km/h (0 Bft) SO 135 1,6 C 7,8 C 0,0 km/h (0 Bft)
07.11.2014 08:30 2,0 C 97 % 1012,0 hPa 0,0 l/m 0,0 km/h (0 Bft) SO 135 1,6 C 7,8 C 0,0 km/h (0 Bft)
07.11.2014 08:35 2,1 C 97 % 1012,0 hPa 0,0 l/m 0,0 km/h (0 Bft) SO 135 1,7 C 7,8 C 0,0 km/h (0 Bft)
07.11.2014 08:40 2,1 C 97 % 1012,2 hPa 0,0 l/m 0,0 km/h (0 Bft) SO 135 1,7 C 7,8 C 0,0 km/h (0 Bft)
07.11.2014 08:45 2,1 C 97 % 1012,2 hPa 0,0 l/m 0,0 km/h (0 Bft) SO 135 1,7 C 7,8 C 0,0 km/h (0 Bft)
07.11.2014 08:50 2,2 C 97 % 1012,2 hPa 0,0 l/m 0,0 km/h (0 Bft) SO 135 1,8 C 7,8 C 0,0 km/h (0 Bft)
07.11.2014 08:55 2,4 C 98 % 1012,2 hPa 0,0 l/m 0,0 km/h (0 Bft) SO 135 2,1 C 7,8 C 0,0 km/h (0 Bft)
07.11.2014 09:00 2,4 C 97 % 1011,8 hPa 0,0 l/m 0,0 km/h (0 Bft) SO 135 2,0 C 7,8 C 0,0 km/h (0 Bft)
07.11.2014 09:03 2,4 C 98 % 1011,8 hPa 0,0 l/m 0,0 km/h (0 Bft) SO 135 2,1 C 7,8 C 0,0 km/h (0 Bft)
07.11.2014 09:05 2,5 C 98 % 1011,8 hPa 0,0 l/m 0,0 km/h (0 Bft) SO 135 2,2 C 7,8 C 0,0 km/h (0 Bft)
07.11.2014 09:10 2,6 C 98 % 1011,8 hPa 0,0 l/m 0,0 km/h (0 Bft) SO 135 2,3 C 7,8 C 0,0 km/h (0 Bft)
07.11.2014 09:15 2,7 C 98 % 1011,9 hPa 0,0 l/m 0,0 km/h (0 Bft) SO 135 2,4 C 7,8 C 0,0 km/h (0 Bft)
07.11.2014 09:20 2,7 C 98 % 1011,9 hPa 0,0 l/m 0,0 km/h (0 Bft) SO 135 2,4 C 7,8 C 0,0 km/h (0 Bft)
07.11.2014 09:25 2,9 C 98 % 1011,9 hPa 0,0 l/m 0,0 km/h (0 Bft) SO 135 2,6 C 7,8 C 0,0 km/h (0 Bft)
07.11.2014 09:30 3,0 C 97 % 1011,9 hPa 0,0 l/m 0,0 km/h (0 Bft) SO 135 2,6 C 7,8 C 0,0 km/h (0 Bft)
07.11.2014 09:35 3,1 C 97 % 1011,9 hPa 0,0 l/m 0,0 km/h (0 Bft) SO 135 2,7 C 7,8 C 0,0 km/h (0 Bft)
07.11.2014 09:40 3,1 C 97 % 1011,9 hPa 0,0 l/m 0,0 km/h (0 Bft) SO 135 2,7 C 7,8 C 0,0 km/h (0 Bft)
07.11.2014 09:45 3,2 C 97 % 1011,9 hPa 0,0 l/m 0,0 km/h (0 Bft) SO 135 2,8 C 7,8 C 0,0 km/h (0 Bft)
07.11.2014 09:50 3,6 C 97 % 1011,9 hPa 0,0 l/m 0,0 km/h (0 Bft) SO 135 3,2 C 7,8 C 0,0 km/h (0 Bft)
07.11.2014 09:55 3,6 C 97 % 1012,1 hPa 0,0 l/m 0,0 km/h (0 Bft) SO 135 3,2 C 7,8 C 0,0 km/h (0 Bft)
07.11.2014 10:00 3,8 C 97 % 1012,1 hPa 0,0 l/m 0,0 km/h (0 Bft) SO 135 3,4 C 7,8 C 0,0 km/h (0 Bft)
07.11.2014 10:05 3,9 C 97 % 1012,1 hPa 0,0 l/m 0,0 km/h (0 Bft) SO 135 3,5 C 7,8 C 0,0 km/h (0 Bft)
07.11.2014 10:10 4,1 C 96 % 1012,1 hPa 0,0 l/m 0,0 km/h (0 Bft) SO 135 3,5 C 7,8 C 0,0 km/h (0 Bft)
07.11.2014 10:15 4,1 C 96 % 1012,1 hPa 0,0 l/m 0,0 km/h (0 Bft) SO 135 3,5 C 7,8 C 0,0 km/h (0 Bft)
07.11.2014 10:20 4,0 C 96 % 1012,1 hPa 0,0 l/m 0,0 km/h (0 Bft) SO 135 3,4 C 7,8 C 0,0 km/h (0 Bft)
07.11.2014 10:25 4,5 C 96 % 1012,1 hPa 0,0 l/m 0,0 km/h (0 Bft) SO 135 3,9 C 7,8 C 0,0 km/h (0 Bft)
07.11.2014 10:30 4,9 C 96 % 1012,1 hPa 0,0 l/m 0,0 km/h (0 Bft) SO 135 4,3 C 7,8 C 0,0 km/h (0 Bft)
07.11.2014 10:35 5,2 C 96 % 1012,1 hPa 0,0 l/m 0,0 km/h (0 Bft) SO 135 4,6 C 7,8 C 0,0 km/h (0 Bft)
07.11.2014 10:40 5,0 C 96 % 1011,9 hPa 0,0 l/m 0,0 km/h (0 Bft) SO 135 4,4 C 7,8 C 0,0 km/h (0 Bft)
07.11.2014 10:45 5,3 C 96 % 1011,9 hPa 0,0 l/m 0,0 km/h (0 Bft) SO 135 4,7 C 7,8 C 0,0 km/h (0 Bft)
07.11.2014 10:50 5,1 C 96 % 1011,9 hPa 0,0 l/m 0,0 km/h (0 Bft) SO 135 4,5 C 7,8 C 0,0 km/h (0 Bft)
07.11.2014 10:55 5,6 C 96 % 1011,9 hPa 0,0 l/m 0,0 km/h (0 Bft) SO 135 5,0 C 7,8 C 0,0 km/h (0 Bft)
07.11.2014 11:00 6,1 C 95 % 1012,0 hPa 0,0 l/m 0,0 km/h (0 Bft) SO 135 5,4 C 7,8 C 0,0 km/h (0 Bft)
07.11.2014 11:05 6,0 C 94 % 1012,0 hPa 0,0 l/m 0,0 km/h (0 Bft) SO 135 5,1 C 7,8 C 0,0 km/h (0 Bft)
07.11.2014 11:10 6,6 C 94 % 1012,0 hPa 0,0 l/m 0,0 km/h (0 Bft) SO 135 5,7 C 7,8 C 0,0 km/h (0 Bft)
07.11.2014 11:15 6,2 C 93 % 1012,0 hPa 0,0 l/m 0,0 km/h (0 Bft) SO 135 5,2 C 7,8 C 0,0 km/h (0 Bft)
07.11.2014 11:20 6,4 C 93 % 1012,0 hPa 0,0 l/m 0,0 km/h (0 Bft) SO 135 5,4 C 7,8 C 0,0 km/h (0 Bft)
07.11.2014 11:25 6,2 C 92 % 1012,0 hPa 0,0 l/m 0,0 km/h (0 Bft) SO 135 5,0 C 7,8 C 0,0 km/h (0 Bft)
07.11.2014 11:30 6,6 C 92 % 1012,0 hPa 0,0 l/m 0,0 km/h (0 Bft) SO 135 5,4 C 7,8 C 0,0 km/h (0 Bft)
07.11.2014 11:35 7,0 C 92 % 1012,0 hPa 0,0 l/m 0,0 km/h (0 Bft) SO 135 5,8 C 7,8 C 0,0 km/h (0 Bft)
07.11.2014 11:40 6,7 C 91 % 1011,8 hPa 0,0 l/m 0,0 km/h (0 Bft) SO 135 5,3 C 7,8 C 0,0 km/h (0 Bft)
07.11.2014 11:45 6,7 C 91 % 1011,8 hPa 0,0 l/m 0,0 km/h (0 Bft) SO 135 5,3 C 7,8 C 0,0 km/h (0 Bft)
07.11.2014 11:50 7,0 C 91 % 1011,8 hPa 0,0 l/m 0,0 km/h (0 Bft) SO 135 5,6 C 7,8 C 0,0 km/h (0 Bft)
07.11.2014 11:55 6,8 C 90 % 1011,8 hPa 0,0 l/m 0,0 km/h (0 Bft) SO 135 5,3 C 7,8 C 0,0 km/h (0 Bft)
07.11.2014 12:00 7,1 C 90 % 1011,6 hPa 0,0 l/m 0,0 km/h (0 Bft) SO 135 5,6 C 7,8 C 0,0 km/h (0 Bft)
07.11.2014 12:03 6,9 C 89 % 1011,6 hPa 0,0 l/m 0,0 km/h (0 Bft) SO 135 5,2 C 7,8 C 0,0 km/h (0 Bft)
07.11.2014 12:10 6,8 C 89 % 1011,6 hPa 0,0 l/m 0,0 km/h (0 Bft) SO 135 5,1 C 7,8 C 0,0 km/h (0 Bft)
07.11.2014 12:15 7,2 C 89 % 1011,4 hPa 0,0 l/m 0,0 km/h (0 Bft) SO 135 5,5 C 7,8 C 0,0 km/h (0 Bft)
07.11.2014 12:20 6,7 C 89 % 1011,4 hPa 0,0 l/m 0,0 km/h (0 Bft) SO 135 5,0 C 7,8 C 0,0 km/h (0 Bft)
07.11.2014 12:25 6,8 C 89 % 1011,4 hPa 0,0 l/m 0,0 km/h (0 Bft) SO 135 5,1 C 7,8 C 0,0 km/h (0 Bft)
07.11.2014 12:30 6,9 C 89 % 1011,4 hPa 0,0 l/m 0,0 km/h (0 Bft) SO 135 5,2 C 7,8 C 0,0 km/h (0 Bft)
07.11.2014 12:35 6,9 C 90 % 1011,1 hPa 0,0 l/m 0,0 km/h (0 Bft) SO 135 5,4 C 7,8 C 0,0 km/h (0 Bft)
07.11.2014 12:40 7,1 C 89 % 1011,1 hPa 0,0 l/m 0,0 km/h (0 Bft) SO 135 5,4 C 7,8 C 0,0 km/h (0 Bft)
07.11.2014 12:45 7,1 C 89 % 1011,1 hPa 0,0 l/m 0,0 km/h (0 Bft) SO 135 5,4 C 7,8 C 0,0 km/h (0 Bft)
07.11.2014 12:50 7,5 C 90 % 1011,1 hPa 0,0 l/m 0,0 km/h (0 Bft) SO 135 6,0 C 7,8 C 0,0 km/h (0 Bft)
07.11.2014 12:55 7,4 C 89 % 1011,2 hPa 0,0 l/m 0,0 km/h (0 Bft) SO 135 5,7 C 7,8 C 0,0 km/h (0 Bft)
07.11.2014 13:00 7,4 C 90 % 1011,2 hPa 0,0 l/m 0,0 km/h (0 Bft) SO 135 5,9 C 7,8 C 0,0 km/h (0 Bft)
07.11.2014 13:05 7,4 C 90 % 1011,2 hPa 0,0 l/m 0,0 km/h (0 Bft) SO 135 5,9 C 7,8 C 0,0 km/h (0 Bft)
07.11.2014 13:10 7,6 C 90 % 1011,2 hPa 0,0 l/m 0,0 km/h (0 Bft) SO 135 6,1 C 7,8 C 0,0 km/h (0 Bft)
07.11.2014 13:15 7,6 C 90 % 1011,2 hPa 0,0 l/m 0,0 km/h (0 Bft) SO 135 6,1 C 7,8 C 0,0 km/h (0 Bft)
07.11.2014 13:20 7,5 C 90 % 1011,1 hPa 0,0 l/m 0,0 km/h (0 Bft) SO 135 6,0 C 7,8 C 0,0 km/h (0 Bft)
07.11.2014 13:25 7,7 C 90 % 1011,1 hPa 0,0 l/m 0,0 km/h (0 Bft) SO 135 6,2 C 7,8 C 0,0 km/h (0 Bft)
07.11.2014 13:30 7,7 C 90 % 1011,1 hPa 0,0 l/m 0,0 km/h (0 Bft) SO 135 6,2 C 7,8 C 0,0 km/h (0 Bft)
07.11.2014 13:35 7,9 C 90 % 1011,1 hPa 0,0 l/m 0,0 km/h (0 Bft) SO 135 6,4 C 7,8 C 0,0 km/h (0 Bft)
07.11.2014 13:40 7,9 C 90 % 1011,4 hPa 0,0 l/m 0,0 km/h (0 Bft) SO 135 6,4 C 7,8 C 0,0 km/h (0 Bft)
07.11.2014 13:45 7,7 C 89 % 1011,4 hPa 0,0 l/m 0,0 km/h (0 Bft) SO 135 6,0 C 7,8 C 0,0 km/h (0 Bft)
07.11.2014 13:50 8,2 C 89 % 1011,4 hPa 0,0 l/m 0,0 km/h (0 Bft) SO 135 6,5 C 7,8 C 0,0 km/h (0 Bft)
07.11.2014 13:55 8,0 C 89 % 1011,4 hPa 0,0 l/m 0,0 km/h (0 Bft) SO 135 6,3 C 7,8 C 0,0 km/h (0 Bft)
07.11.2014 14:00 8,0 C 89 % 1011,6 hPa 0,0 l/m 0,0 km/h (0 Bft) SO 135 6,3 C 7,8 C 0,0 km/h (0 Bft)
07.11.2014 14:05 8,0 C 88 % 1011,6 hPa 0,0 l/m 0,0 km/h (0 Bft) SO 135 6,1 C 7,8 C 0,0 km/h (0 Bft)
07.11.2014 14:10 8,0 C 88 % 1011,6 hPa 0,0 l/m 0,0 km/h (0 Bft) SO 135 6,1 C 7,8 C 0,0 km/h (0 Bft)
07.11.2014 14:15 8,5 C 87 % 1011,6 hPa 0,0 l/m 0,0 km/h (0 Bft) SO 135 6,5 C 7,8 C 0,0 km/h (0 Bft)
07.11.2014 14:20 8,8 C 85 % 1011,6 hPa 0,0 l/m 0,0 km/h (0 Bft) SO 135 6,4 C 7,8 C 0,0 km/h (0 Bft)
07.11.2014 14:25 9,1 C 84 % 1011,6 hPa 0,0 l/m 0,0 km/h (0 Bft) SO 135 6,5 C 7,8 C 0,0 km/h (0 Bft)
07.11.2014 14:30 9,3 C 83 % 1011,6 hPa 0,0 l/m 0,0 km/h (0 Bft) SO 135 6,6 C 7,8 C 0,0 km/h (0 Bft)
07.11.2014 14:35 8,7 C 81 % 1011,6 hPa 0,0 l/m 0,0 km/h (0 Bft) SO 135 5,6 C 7,8 C 0,0 km/h (0 Bft)
07.11.2014 14:40 8,6 C 83 % 1011,6 hPa 0,0 l/m 0,0 km/h (0 Bft) SO 135 5,9 C 7,8 C 0,0 km/h (0 Bft)
07.11.2014 14:45 9,4 C 84 % 1011,6 hPa 0,0 l/m 0,0 km/h (0 Bft) SO 135 6,8 C 7,8 C 0,0 km/h (0 Bft)
07.11.2014 14:50 10,0 C 85 % 1011,6 hPa 0,0 l/m 0,0 km/h (0 Bft) SO 135 7,6 C 7,8 C 0,0 km/h (0 Bft)
07.11.2014 14:55 9,8 C 85 % 1011,6 hPa 0,0 l/m 0,0 km/h (0 Bft) SO 135 7,4 C 7,8 C 0,0 km/h (0 Bft)
07.11.2014 15:00 9,7 C 86 % 1011,9 hPa 0,0 l/m 0,0 km/h (0 Bft) SO 135 7,5 C 7,8 C 0,0 km/h (0 Bft)
07.11.2014 15:03 9,5 C 87 % 1011,9 hPa 0,0 l/m 0,0 km/h (0 Bft) SO 135 7,4 C 7,8 C 0,0 km/h (0 Bft)
07.11.2014 15:10 9,1 C 86 % 1011,9 hPa 0,0 l/m 0,0 km/h (0 Bft) SO 135 6,9 C 7,8 C 0,0 km/h (0 Bft)
07.11.2014 15:15 9,0 C 87 % 1011,9 hPa 0,0 l/m 0,0 km/h (0 Bft) SO 135 7,0 C 7,8 C 0,0 km/h (0 Bft)
07.11.2014 15:20 9,1 C 88 % 1011,9 hPa 0,0 l/m 0,0 km/h (0 Bft) SO 135 7,2 C 7,8 C 0,0 km/h (0 Bft)
07.11.2014 15:25 9,0 C 88 % 1011,9 hPa 0,0 l/m 0,0 km/h (0 Bft) SO 135 7,1 C 7,8 C 0,0 km/h (0 Bft)
07.11.2014 15:30 8,7 C 89 % 1011,9 hPa 0,0 l/m 0,0 km/h (0 Bft) SO 135 7,0 C 7,8 C 0,0 km/h (0 Bft)
07.11.2014 15:35 8,5 C 89 % 1012,0 hPa 0,0 l/m 0,0 km/h (0 Bft) SO 135 6,8 C 7,8 C 0,0 km/h (0 Bft)
07.11.2014 15:40 8,4 C 89 % 1012,0 hPa 0,0 l/m 0,0 km/h (0 Bft) SO 135 6,7 C 7,8 C 0,0 km/h (0 Bft)
07.11.2014 15:45 8,3 C 89 % 1012,0 hPa 0,0 l/m 0,0 km/h (0 Bft) SO 135 6,6 C 7,8 C 0,0 km/h (0 Bft)
07.11.2014 15:50 8,2 C 90 % 1012,0 hPa 0,0 l/m 0,0 km/h (0 Bft) SO 135 6,7 C 7,8 C 0,0 km/h (0 Bft)
07.11.2014 15:55 8,2 C 90 % 1011,9 hPa 0,0 l/m 0,0 km/h (0 Bft) SO 135 6,7 C 7,8 C 0,0 km/h (0 Bft)
07.11.2014 16:00 8,1 C 90 % 1011,9 hPa 0,0 l/m 0,0 km/h (0 Bft) SO 135 6,6 C 7,8 C 0,0 km/h (0 Bft)
07.11.2014 16:05 8,0 C 90 % 1011,9 hPa 0,0 l/m 0,0 km/h (0 Bft) SO 135 6,5 C 7,8 C 0,0 km/h (0 Bft)
07.11.2014 16:10 7,8 C 90 % 1011,9 hPa 0,0 l/m 0,0 km/h (0 Bft) SO 135 6,3 C 7,8 C 0,0 km/h (0 Bft)
07.11.2014 16:15 7,8 C 90 % 1011,9 hPa 0,0 l/m 0,0 km/h (0 Bft) SO 135 6,3 C 7,8 C 0,0 km/h (0 Bft)
07.11.2014 16:20 7,6 C 90 % 1012,1 hPa 0,0 l/m 0,0 km/h (0 Bft) SO 135 6,1 C 7,8 C 0,0 km/h (0 Bft)
07.11.2014 16:25 7,5 C 90 % 1012,1 hPa 0,0 l/m 0,0 km/h (0 Bft) SO 135 6,0 C 7,8 C 0,0 km/h (0 Bft)
07.11.2014 16:30 7,3 C 91 % 1012,1 hPa 0,0 l/m 0,0 km/h (0 Bft) SO 135 5,9 C 7,8 C 0,0 km/h (0 Bft)
07.11.2014 16:35 7,1 C 90 % 1012,1 hPa 0,0 l/m 0,0 km/h (0 Bft) SO 135 5,6 C 7,8 C 0,0 km/h (0 Bft)
07.11.2014 16:40 7,3 C 90 % 1012,2 hPa 0,0 l/m 0,0 km/h (0 Bft) SO 135 5,8 C 7,8 C 0,0 km/h (0 Bft)
07.11.2014 16:45 7,3 C 89 % 1012,2 hPa 0,0 l/m 0,0 km/h (0 Bft) SO 135 5,6 C 7,8 C 0,0 km/h (0 Bft)
07.11.2014 16:50 7,3 C 88 % 1012,2 hPa 0,0 l/m 0,0 km/h (0 Bft) SO 135 5,4 C 7,8 C 0,0 km/h (0 Bft)
07.11.2014 16:55 6,9 C 88 % 1012,2 hPa 0,0 l/m 0,0 km/h (0 Bft) SO 135 5,1 C 7,8 C 0,0 km/h (0 Bft)
07.11.2014 17:00 6,9 C 89 % 1012,3 hPa 0,0 l/m 0,0 km/h (0 Bft) SO 135 5,2 C 7,8 C 0,0 km/h (0 Bft)
07.11.2014 17:05 6,9 C 88 % 1012,3 hPa 0,0 l/m 0,0 km/h (0 Bft) SO 135 5,1 C 7,8 C 0,0 km/h (0 Bft)
07.11.2014 17:10 6,9 C 88 % 1012,3 hPa 0,0 l/m 0,0 km/h (0 Bft) SO 135 5,1 C 7,8 C 0,0 km/h (0 Bft)
07.11.2014 17:15 6,6 C 89 % 1012,3 hPa 0,0 l/m 0,0 km/h (0 Bft) SO 135 4,9 C 7,8 C 0,0 km/h (0 Bft)
07.11.2014 17:20 6,6 C 89 % 1012,4 hPa 0,0 l/m 0,0 km/h (0 Bft) SO 135 4,9 C 7,8 C 0,0 km/h (0 Bft)
07.11.2014 17:25 6,5 C 89 % 1012,4 hPa 0,0 l/m 0,0 km/h (0 Bft) SO 135 4,8 C 7,8 C 0,0 km/h (0 Bft)
07.11.2014 17:30 6,5 C 89 % 1012,4 hPa 0,0 l/m 0,0 km/h (0 Bft) SO 135 4,8 C 7,8 C 0,0 km/h (0 Bft)
07.11.2014 17:35 6,6 C 89 % 1012,4 hPa 0,0 l/m 0,0 km/h (0 Bft) SO 135 4,9 C 7,8 C 0,0 km/h (0 Bft)
07.11.2014 17:40 6,4 C 89 % 1012,4 hPa 0,0 l/m 0,0 km/h (0 Bft) SO 135 4,7 C 7,8 C 0,0 km/h (0 Bft)
07.11.2014 17:45 6,3 C 89 % 1012,4 hPa 0,0 l/m 0,0 km/h (0 Bft) SO 135 4,6 C 7,8 C 0,0 km/h (0 Bft)
07.11.2014 17:50 6,2 C 89 % 1012,4 hPa 0,0 l/m 0,0 km/h (0 Bft) SO 135 4,5 C 7,8 C 0,0 km/h (0 Bft)
07.11.2014 17:55 6,1 C 89 % 1012,4 hPa 0,0 l/m 0,0 km/h (0 Bft) SO 135 4,4 C 7,8 C 0,0 km/h (0 Bft)
07.11.2014 18:00 6,3 C 89 % 1012,5 hPa 0,0 l/m 0,0 km/h (0 Bft) SO 135 4,6 C 7,8 C 0,0 km/h (0 Bft)
07.11.2014 18:05 6,4 C 88 % 1012,5 hPa 0,0 l/m 0,0 km/h (0 Bft) SO 135 4,6 C 7,8 C 0,0 km/h (0 Bft)
07.11.2014 18:10 6,0 C 88 % 1012,5 hPa 0,0 l/m 0,0 km/h (0 Bft) SO 135 4,2 C 7,8 C 0,0 km/h (0 Bft)
07.11.2014 18:15 6,0 C 88 % 1012,8 hPa 0,0 l/m 0,0 km/h (0 Bft) SO 135 4,2 C 7,8 C 0,0 km/h (0 Bft)
07.11.2014 18:20 6,3 C 87 % 1012,8 hPa 0,0 l/m 0,0 km/h (0 Bft) SO 135 4,3 C 7,8 C 0,0 km/h (0 Bft)
07.11.2014 18:25 6,4 C 87 % 1012,8 hPa 0,0 l/m 0,0 km/h (0 Bft) SO 135 4,4 C 7,8 C 0,0 km/h (0 Bft)
07.11.2014 18:30 6,4 C 87 % 1012,8 hPa 0,0 l/m 0,0 km/h (0 Bft) SO 135 4,4 C 7,8 C 0,0 km/h (0 Bft)
07.11.2014 18:35 6,4 C 86 % 1013,1 hPa 0,0 l/m 0,0 km/h (0 Bft) SO 135 4,2 C 7,8 C 0,0 km/h (0 Bft)
07.11.2014 18:40 6,7 C 86 % 1013,1 hPa 0,0 l/m 0,0 km/h (0 Bft) SO 135 4,5 C 7,8 C 0,0 km/h (0 Bft)
07.11.2014 18:45 6,6 C 85 % 1013,1 hPa 0,0 l/m 0,0 km/h (0 Bft) SO 135 4,3 C 7,8 C 0,0 km/h (0 Bft)
07.11.2014 18:50 6,6 C 83 % 1013,1 hPa 0,0 l/m 0,0 km/h (0 Bft) SO 135 3,9 C 7,8 C 0,0 km/h (0 Bft)
07.11.2014 18:55 6,5 C 84 % 1013,1 hPa 0,0 l/m 0,0 km/h (0 Bft) SO 135 4,0 C 7,8 C 0,0 km/h (0 Bft)
07.11.2014 19:00 6,3 C 84 % 1013,1 hPa 0,0 l/m 0,0 km/h (0 Bft) SO 135 3,8 C 7,8 C 0,0 km/h (0 Bft)
07.11.2014 19:05 6,2 C 84 % 1013,1 hPa 0,0 l/m 0,0 km/h (0 Bft) SO 135 3,7 C 7,8 C 0,0 km/h (0 Bft)
07.11.2014 19:10 6,0 C 86 % 1013,1 hPa 0,0 l/m 0,0 km/h (0 Bft) SO 135 3,8 C 7,8 C 0,0 km/h (0 Bft)
07.11.2014 19:15 6,0 C 86 % 1013,1 hPa 0,0 l/m 0,0 km/h (0 Bft) SO 135 3,8 C 7,8 C 0,0 km/h (0 Bft)
07.11.2014 19:20 6,1 C 86 % 1013,4 hPa 0,0 l/m 0,0 km/h (0 Bft) SO 135 3,9 C 7,8 C 0,0 km/h (0 Bft)
07.11.2014 19:25 6,1 C 86 % 1013,4 hPa 0,0 l/m 0,0 km/h (0 Bft) SO 135 3,9 C 7,8 C 0,0 km/h (0 Bft)
07.11.2014 19:30 5,9 C 88 % 1013,4 hPa 0,0 l/m 0,0 km/h (0 Bft) SO 135 4,1 C 7,8 C 0,0 km/h (0 Bft)
07.11.2014 19:35 5,8 C 88 % 1013,4 hPa 0,0 l/m 0,0 km/h (0 Bft) SO 135 4,0 C 7,8 C 0,0 km/h (0 Bft)
07.11.2014 19:40 5,8 C 88 % 1013,6 hPa 0,0 l/m 0,0 km/h (0 Bft) SO 135 4,0 C 7,8 C 0,0 km/h (0 Bft)
07.11.2014 19:45 5,8 C 88 % 1013,6 hPa 0,0 l/m 0,0 km/h (0 Bft) SO 135 4,0 C 7,8 C 0,0 km/h (0 Bft)
07.11.2014 19:50 5,7 C 89 % 1013,6 hPa 0,0 l/m 0,0 km/h (0 Bft) SO 135 4,0 C 7,8 C 0,0 km/h (0 Bft)
07.11.2014 19:55 5,5 C 89 % 1013,6 hPa 0,0 l/m 0,0 km/h (0 Bft) SO 135 3,8 C 7,8 C 0,0 km/h (0 Bft)
07.11.2014 20:00 5,4 C 89 % 1013,8 hPa 0,0 l/m 0,0 km/h (0 Bft) SO 135 3,7 C 7,8 C 0,0 km/h (0 Bft)
07.11.2014 20:05 5,3 C 89 % 1013,8 hPa 0,0 l/m 0,0 km/h (0 Bft) SO 135 3,6 C 7,8 C 0,0 km/h (0 Bft)
07.11.2014 20:10 5,4 C 89 % 1013,8 hPa 0,0 l/m 0,0 km/h (0 Bft) SO 135 3,7 C 7,8 C 0,0 km/h (0 Bft)
07.11.2014 20:15 5,2 C 90 % 1013,8 hPa 0,0 l/m 0,0 km/h (0 Bft) SO 135 3,7 C 7,8 C 0,0 km/h (0 Bft)
07.11.2014 20:20 5,1 C 90 % 1013,8 hPa 0,0 l/m 0,0 km/h (0 Bft) SO 135 3,6 C 7,8 C 0,0 km/h (0 Bft)
07.11.2014 20:25 5,2 C 90 % 1013,8 hPa 0,0 l/m 0,0 km/h (0 Bft) SO 135 3,7 C 7,8 C 0,0 km/h (0 Bft)
07.11.2014 20:30 4,9 C 90 % 1013,8 hPa 0,0 l/m 0,0 km/h (0 Bft) SO 135 3,4 C 7,8 C 0,0 km/h (0 Bft)
07.11.2014 20:35 4,3 C 90 % 1013,8 hPa 0,0 l/m 0,0 km/h (0 Bft) SO 135 2,8 C 7,8 C 0,0 km/h (0 Bft)
07.11.2014 20:40 4,2 C 90 % 1013,9 hPa 0,0 l/m 0,0 km/h (0 Bft) SO 135 2,7 C 7,8 C 0,0 km/h (0 Bft)
07.11.2014 20:45 4,3 C 90 % 1013,9 hPa 0,0 l/m 0,0 km/h (0 Bft) SO 135 2,8 C 7,8 C 0,0 km/h (0 Bft)
07.11.2014 20:50 4,1 C 91 % 1013,9 hPa 0,0 l/m 0,0 km/h (0 Bft) SO 135 2,8 C 7,8 C 0,0 km/h (0 Bft)
07.11.2014 20:55 3,9 C 91 % 1013,9 hPa 0,0 l/m 0,0 km/h (0 Bft) SO 135 2,6 C 7,8 C 0,0 km/h (0 Bft)
07.11.2014 20:58 3,9 C 91 % 1014,1 hPa 0,0 l/m 0,0 km/h (0 Bft) SO 135 2,6 C 7,8 C 0,0 km/h (0 Bft)
07.11.2014 21:00 3,8 C 91 % 1014,1 hPa 0,0 l/m 0,0 km/h (0 Bft) SO 135 2,5 C 7,8 C 0,0 km/h (0 Bft)
07.11.2014 21:05 3,6 C 91 % 1014,1 hPa 0,0 l/m 0,0 km/h (0 Bft) SO 135 2,3 C 7,8 C 0,0 km/h (0 Bft)
07.11.2014 21:10 3,3 C 91 % 1014,1 hPa 0,0 l/m 0,0 km/h (0 Bft) SO 135 2,0 C 7,8 C 0,0 km/h (0 Bft)
07.11.2014 21:15 3,0 C 91 % 1014,1 hPa 0,0 l/m 0,0 km/h (0 Bft) SO 135 1,7 C 7,8 C 0,0 km/h (0 Bft)
07.11.2014 21:20 2,8 C 93 % 1014,1 hPa 0,0 l/m 0,0 km/h (0 Bft) SO 135 1,8 C 7,8 C 0,0 km/h (0 Bft)
07.11.2014 21:25 2,7 C 93 % 1014,1 hPa 0,0 l/m 0,0 km/h (0 Bft) SO 135 1,7 C 7,8 C 0,0 km/h (0 Bft)
07.11.2014 21:30 3,2 C 92 % 1014,1 hPa 0,0 l/m 0,0 km/h (0 Bft) SO 135 2,0 C 7,8 C 0,0 km/h (0 Bft)
07.11.2014 21:35 3,7 C 92 % 1014,3 hPa 0,0 l/m 0,0 km/h (0 Bft) SO 135 2,5 C 7,8 C 0,0 km/h (0 Bft)
07.11.2014 21:40 3,9 C 92 % 1014,3 hPa 0,0 l/m 0,0 km/h (0 Bft) SO 135 2,7 C 7,8 C 0,0 km/h (0 Bft)
07.11.2014 21:45 3,6 C 92 % 1014,3 hPa 0,0 l/m 0,0 km/h (0 Bft) SO 135 2,4 C 7,8 C 0,0 km/h (0 Bft)
07.11.2014 21:50 3,6 C 92 % 1014,3 hPa 0,0 l/m 0,0 km/h (0 Bft) SO 135 2,4 C 7,8 C 0,0 km/h (0 Bft)
07.11.2014 21:55 3,8 C 92 % 1014,6 hPa 0,0 l/m 0,0 km/h (0 Bft) SO 135 2,6 C 7,8 C 0,0 km/h (0 Bft)
07.11.2014 22:00 4,0 C 92 % 1014,6 hPa 0,0 l/m 0,0 km/h (0 Bft) SO 135 2,8 C 7,8 C 0,0 km/h (0 Bft)
07.11.2014 22:05 3,9 C 92 % 1014,6 hPa 0,0 l/m 0,0 km/h (0 Bft) SO 135 2,7 C 7,8 C 0,0 km/h (0 Bft)
07.11.2014 22:10 3,9 C 92 % 1014,6 hPa 0,0 l/m 0,0 km/h (0 Bft) SO 135 2,7 C 7,8 C 0,0 km/h (0 Bft)
07.11.2014 22:15 3,9 C 92 % 1014,6 hPa 0,0 l/m 0,0 km/h (0 Bft) SO 135 2,7 C 7,8 C 0,0 km/h (0 Bft)
07.11.2014 22:20 3,9 C 92 % 1014,6 hPa 0,0 l/m 0,0 km/h (0 Bft) SO 135 2,7 C 7,8 C 0,0 km/h (0 Bft)
07.11.2014 22:25 4,1 C 92 % 1014,6 hPa 0,0 l/m 0,0 km/h (0 Bft) SO 135 2,9 C 7,8 C 0,0 km/h (0 Bft)
07.11.2014 22:30 4,8 C 92 % 1014,6 hPa 0,0 l/m 0,0 km/h (0 Bft) SO 135 3,6 C 7,8 C 0,0 km/h (0 Bft)
07.11.2014 22:35 4,3 C 92 % 1014,6 hPa 0,0 l/m 0,0 km/h (0 Bft) SO 135 3,1 C 7,8 C 0,0 km/h (0 Bft)
07.11.2014 22:40 4,3 C 92 % 1014,8 hPa 0,0 l/m 0,0 km/h (0 Bft) SO 135 3,1 C 7,8 C 0,0 km/h (0 Bft)
07.11.2014 22:45 4,4 C 92 % 1014,8 hPa 0,0 l/m 0,0 km/h (0 Bft) SO 135 3,2 C 7,8 C 0,0 km/h (0 Bft)
07.11.2014 22:50 4,4 C 92 % 1014,8 hPa 0,0 l/m 0,0 km/h (0 Bft) SO 135 3,2 C 7,8 C 0,0 km/h (0 Bft)
07.11.2014 22:55 4,5 C 92 % 1014,8 hPa 0,0 l/m 0,0 km/h (0 Bft) SO 135 3,3 C 7,8 C 0,0 km/h (0 Bft)
07.11.2014 23:00 4,4 C 92 % 1014,8 hPa 0,0 l/m 0,0 km/h (0 Bft) SO 135 3,2 C 7,8 C 0,0 km/h (0 Bft)
07.11.2014 23:05 5,6 C 92 % 1014,8 hPa 0,0 l/m 0,0 km/h (0 Bft) SO 135 4,4 C 7,8 C 0,0 km/h (0 Bft)
07.11.2014 23:10 5,5 C 91 % 1014,8 hPa 0,0 l/m 0,0 km/h (0 Bft) SO 135 4,2 C 7,8 C 0,0 km/h (0 Bft)
07.11.2014 23:15 5,1 C 91 % 1014,8 hPa 0,0 l/m 0,0 km/h (0 Bft) SO 135 3,8 C 7,8 C 0,0 km/h (0 Bft)
07.11.2014 23:20 5,2 C 91 % 1015,0 hPa 0,0 l/m 0,0 km/h (0 Bft) SO 135 3,9 C 7,8 C 0,0 km/h (0 Bft)
07.11.2014 23:25 5,0 C 90 % 1015,0 hPa 0,0 l/m 0,0 km/h (0 Bft) SO 135 3,5 C 7,8 C 0,0 km/h (0 Bft)
07.11.2014 23:30 5,1 C 90 % 1015,0 hPa 0,0 l/m 0,0 km/h (0 Bft) SO 135 3,6 C 7,8 C 0,0 km/h (0 Bft)
07.11.2014 23:35 5,1 C 90 % 1015,0 hPa 0,0 l/m 0,0 km/h (0 Bft) SO 135 3,6 C 7,8 C 0,0 km/h (0 Bft)
07.11.2014 23:40 5,0 C 90 % 1015,2 hPa 0,0 l/m 0,0 km/h (0 Bft) SO 135 3,5 C 7,8 C 0,0 km/h (0 Bft)
07.11.2014 23:45 5,0 C 90 % 1015,2 hPa 0,0 l/m 0,0 km/h (0 Bft) SO 135 3,5 C 7,8 C 0,0 km/h (0 Bft)
07.11.2014 23:50 5,1 C 90 % 1015,2 hPa 0,0 l/m 0,0 km/h (0 Bft) SO 135 3,6 C 7,8 C 0,0 km/h (0 Bft)
07.11.2014 23:55 5,8 C 89 % 1015,2 hPa 0,0 l/m 0,0 km/h (0 Bft) SO 135 4,1 C 7,8 C 0,0 km/h (0 Bft)
07.11.2014 23:58 6,0 C 88 % 1015,4 hPa 0,0 l/m 0,0 km/h (0 Bft) SO 135 4,2 C 7,8 C 0,0 km/h (0 Bft)
_ Min-Zeit 07:55 14:35 13:35 - 23:58 - - 07:55 23:58 23:58
Minimum _ 1,6 C 81 % 1011,1 hPa - 0,0 km/h (0 Bft) - - 1,3 C 7,8 C 0,0 km/h (0 Bft)
_ Max-Zeit 14:50 09:25 23:58 23:58 23:58 - - 14:50 23:58 23:58
Maximum _ 10,0 C 98 % 1015,4 hPa 0,0 l/m 0,0 km/h
SO (0 Bft)
- - 7,6 C 7,8 C 0,0 km/h
SO (0 Bft)
Durchschnitt _ 4,5 C 93 % 1012,6 hPa #0,0 l/m 0,0 km/h (0 Bft) - - - 3,5 C 7,8 C 0,0 km/h (0 Bft)